sat.trackr.live / text

‹ back to catalog

GSAT0203 (GALILEO 7)

NORAD 40544 · 2015-017A

PAYLOAD ACTIVE UNKNOWN

§ Identity

Operator
Country
ESA
Launch date
2015-03-27
Launch site
FRGUI
Launch vehicle
Mass (kg)
RCS (m²)
8.45

Purposes: earth_obs, nav

External: N2YO · Heavens-Above · Gunter

§ Orbital elements

Epoch: 2026-05-24T03:54:38.212128Z

Period
844.69 min
Inclination
56.7947°
Eccentricity
0.0002258
Mean motion
1.70476041 rev/d
Perigee alt
23,215.3 km
Apogee alt
23,228.6 km
Semi-major
29,600.1 km
B*
0.0000e+0
RAAN
342.2501°
Arg perigee
291.5829°
Mean anomaly
68.4129°
Rev number
6,879

§ Raw data

GSAT0203 (GALILEO 7)1 40544U 15017A   26144.16294227 -.00000090  00000+0  00000+0 0  99992 40544  56.7947 342.2501 0002258 291.5829  68.4129  1.70476041 68797

JSON: /api/v1/satellites/40544 · /tle

For live sub-satellite position, see the globe view (requires WebGL).

§ Visibility from observer

Set your observer location to see the next 7 days of passes ≥ 10°. The values pass through the URL so the page stays shareable.

No JS? Fill the form by hand. The geolocation button needs JavaScript.